AirNav   Free Bose QuietComfort 20
 
 804 users online  

4J1 Brantley County Airport
Nahunta, Georgia, USA

GOING TO NAHUNTA?


FAA INFORMATION EFFECTIVE 05 DECEMBER 2019

Location

FAA Identifier: 4J1
Lat/Long: 31-12-21.9000N 081-54-21.6000W
31-12.365000N 081-54.360000W
31.2060833,-81.9060000
(estimated)
Elevation: 84.8 ft. / 25.8 m (surveyed)
Variation: 06W (2010)
From city: 4 miles E of NAHUNTA, GA
Time zone: UTC -5 (UTC -4 during Daylight Saving Time)
Zip code: 31553

Airport Operations

Airport use: Open to the public
Control tower: no
ARTCC: JACKSONVILLE CENTER
FSS: MACON FLIGHT SERVICE STATION
NOTAMs facility: MCN (NOTAM-D service available)
Attendance: UNATNDD
Wind indicator: lighted
Segmented circle: yes
Lights: ACTVT MIRL RY 01/19 AND PAPI RY 01 & 19 - CTAF.
Beacon: white-green (lighted land airport)
Operates sunset to sunrise.

Airport Communications

CTAF: 122.9
  • APCH/DEP SVC PRVDD BY JACKSONVILLE ARTCC ON FREQS 127.575/269.025 (ALMA RCAG).

Nearby radio navigation aids

VOR radial/distance  VOR name  Freq  Var
SSIr296/25.4BRUNSWICK VORTAC109.8004W
AYSr096/33.6WAYCROSS VORTAC110.2000E
AMGr123/36.7ALMA VORTAC115.1000E

 
NDB name  Hdg/Dist  Freq  Var  ID
BAXLEY147/39.237606WBHC -... .... -.-.

Airport Services

Parking: tiedowns
Airframe service: NONE
Powerplant service: NONE
Bottled oxygen: NONE
Bulk oxygen: NONE

Runway Information

Runway 1/19

Dimensions: 4000 x 75 ft. / 1219 x 23 m
Surface: asphalt, in good condition
Weight bearing capacity: 
Single wheel: 14.0
Runway edge lights: medium intensity
RUNWAY 1  RUNWAY 19
Latitude: 31-12.036240N31-12.692127N
Longitude: 081-54.401162W081-54.317205W
Elevation: 79.6 ft.81.0 ft.
Traffic pattern: leftleft
Runway heading: 012 magnetic, 006 true192 magnetic, 186 true
Markings: nonprecision, in good conditionnonprecision, in good condition
Visual slope indicator: 2-light PAPI on left (3.00 degrees glide path)2-light PAPI on left (3.00 degrees glide path)
Touchdown point: yes, no lightsyes, no lights
Obstructions: 10 ft. brush, 201 ft. from runway, 240 ft. right of centerline63 ft. trees, 1334 ft. from runway, 43 ft. right of centerline, 18:1 slope to clear

Airport Ownership and Management from official FAA records

Ownership: Publicly-owned
Owner: BRANTLEY COUNTY
33 ALLEN RD, 117 BRANTLY STREET
NAHUNTA, GA 31553
Phone 912-462-5256
Manager: RENEE HERRIN
33 ALLEN RD, PO BOX 792
NAHUNTA, GA 31553
Phone (912) 462-5256

Airport Operational Statistics

Aircraft operations: avg 83/month *
50% transient general aviation
50% local general aviation
* for 12-month period ending 01 November 2017

Additional Remarks

FOR CD CTC JACKSONVILLE ARTCC AT 904-845-1592.

Instrument Procedures

NOTE: All procedures below are presented as PDF files. If you need a reader for these files, you should download the free Adobe Reader.

NOT FOR NAVIGATION. Please procure official charts for flight.
FAA instrument procedures published for use from 05 December 2019 at 0900Z to 02 January 2020 at 0900Z.

 
IAPs - Instrument Approach Procedures
RNAV (GPS) Y RWY 01   download (227KB)
RNAV (GPS) Y RWY 19   download (211KB)
RNAV (GPS) Z RWY 01   download (191KB)
RNAV (GPS) Z RWY 19   download (213KB)
NOTE: Special Take-Off Minimums/Departure Procedures apply   download (189KB)

Other nearby airports with instrument procedures:

KJES - Jesup-Wayne County Airport (21 nm N)
KBQK - Brunswick Golden Isles Airport (23 nm E)
KAYS - Waycross-Ware County Airport (25 nm W)
09J - Jekyll Island Airport (26 nm E)
KSSI - St Simons Island Airport (27 nm E)
 
Loc | Ops | Rwys | IFR | FBO | Links
Com | Nav | Svcs | Stats | Notes
Area around 4J1 (Brantley County Airport)
 
Road maps at: MapQuest Bing Google
 
Aerial photo
WARNING: Photo may not be current or correct
Aerial photo of 4J1 (Brantley County Airport)
Photo taken 24-Sep-2011
looking south-southwest.

Do you have a better or more recent aerial photo of Brantley County Airport that you would like to share? If so, please send us your photo.

 
Sectional chart

 
Airport distance calculator
Flying to Brantley County Airport? Find the distance to fly.

From to 4J1

Sunrise and sunset
Times for 09-Dec-2019
 Local
(UTC-5)
 Zulu
(UTC)
Morning civil twilight06:4911:49
Sunrise07:1612:16
Sunset17:2422:24
Evening civil twilight17:5122:51

Current date and time
Zulu (UTC)  09-Dec-2019 05:40:55
Local (UTC-5)  09-Dec-2019 00:40:55
 
METAR
KJES 
21nm N 
090457Z AUTO 00000KT 10SM CLR 12/09 A3019 RMK AO2
KBQK 
23nm E 
090515Z AUTO 05007KT 10SM OVC005 15/14 A3018 RMK AO2 T01460142
KAYS 
25nm W 
090515Z AUTO 00000KT 10SM OVC008 11/08 A3017 RMK AO2 T01060081 TSNO
KSSI 
27nm E 
090453Z AUTO 06009KT 10SM OVC006 16/14 A3018 RMK AO2 SLP220 T01560139 401560128
KAMG 
36nm NW 
090453Z AUTO 10003KT 10SM SCT030 12/08 A3018 RMK AO2 SLP219 T01170078 401830083
KBHC 
39nm NW 
090515Z AUTO 00000KT 10SM OVC100 11/08 A3018 RMK AO2
TAF
KSSI 
27nm E 
090214Z 0902/0924 09007KT P6SM SCT030 BKN050 TEMPO 0905/0907 BKN010 FM090700 VRB03KT 5SM BR SCT004 BKN008 TEMPO 0908/0912 2SM BR BKN003 FM091300 19005KT 6SM BR SCT008 BKN010 FM091600 18011KT P6SM FEW030 BKN250
NOTAMs
Click for the latest NOTAMs
NOTAMs are issued by the DoD/FAA and will open in a separate window not controlled by AirNav.

 

 
 

Would you like to see your business listed on this page?

 If your business provides an interesting product or service to pilots, flight crews, aircraft, or users of the Brantley County Airport, you should consider listing it here.  To start the listing process, click on the button below
 
Add a business
 

Other Pages about Brantley County Airport

Update a link
 
Copyright © AirNav, LLC. All rights reserved. Privacy Policy  Contact